AirNav   Everest Fuels
 
 900 users online  

S68 Orofino Municipal Airport
Orofino, Idaho, USA

GOING TO OROFINO?


FAA INFORMATION EFFECTIVE 02 DECEMBER 2021

Location

FAA Identifier: S68
Lat/Long: 46-29-31.2760N 116-16-31.4380W
46-29.521267N 116-16.523967W
46.4920211,-116.2753994
(estimated)
Elevation: 1004.7 ft. / 306.2 m (surveyed)
Variation: 18E (1985)
From city: 1 mile NW of OROFINO, ID
Time zone: UTC -8 (UTC -7 during Daylight Saving Time)
Zip code: 83544

Airport Operations

Airport use: Open to the public
Activation date: 04/1940
Control tower: no
ARTCC: SEATTLE CENTER
FSS: BOISE FLIGHT SERVICE STATION
NOTAMs facility: BOI (NOTAM-D service available)
Attendance: UNATNDD
Wind indicator: lighted
Segmented circle: no
Lights: ACTVT RY 09/27 MIRL - CTAF.

Airport Communications

CTAF/UNICOM: 122.8

Nearby radio navigation aids

VOR radial/distance  VOR name  Freq  Var
MQGr055/25.4NEZ PERCE VOR/DME108.2020E

Airport Services

Fuel available: 100LL
Parking: tiedowns
Airframe service: NONE
Powerplant service: NONE
Bottled oxygen: NONE
Bulk oxygen: NONE

Runway Information

Runway 9/27

Dimensions: 2520 x 60 ft. / 768 x 18 m
Surface: asphalt, in good condition
Weight bearing capacity: 
Single wheel: 17.0
Runway edge lights: medium intensity
RUNWAY 9  RUNWAY 27
Latitude: 46-29.604263N46-29.438260N
Longitude: 116-16.798980W116-16.248955W
Elevation: 1000.0 ft.1004.7 ft.
Traffic pattern: rightleft
Displaced threshold: 100 ft.no
Markings: basic, in good conditionbasic, in good condition
Touchdown point: yes, no lightsyes, no lights
Obstructions: 85 ft. tree, 320 ft. from runway, 150 ft. right of centerline, 1:1 slope to clear65 ft. tree, 1125 ft. from runway, 175 ft. left of centerline, 14:1 slope to clear
+13 FT ROAD AT 0 FT 110 FT R OF CNTRLN.

Airport Ownership and Management from official FAA records

Ownership: Publicly-owned
Owner: CITY OF OROFINO
P. O. BOX 312
OROFINO, ID 83544
Phone 208-476-4725
Manager: RYAN SMATHERS
217 FIRST ST
OROFINO, ID 83544
Phone 208-476-4725

Airport Operational Statistics

Aircraft based on the field: 9
Single engine airplanes: 9
    
Aircraft operations: avg 79/week *
73% transient general aviation
27% local general aviation
* for 12-month period ending 30 September 2021

Additional Remarks

HIGH TERRAIN IN ALL QUADS AROUND ARPT.
TWO 1968 FT MSL (250 FT AGL) RADIO TWRS LOCATED APPROXIMATELY 1 MILE E OF RY 27 300 FT LEFT.
BE ALERT DURING NIGHT OPS DUE TO TERRAIN.
FOR CD CTC SEATTLE ARTCC AT 253-351-3694.
FUEL AVBL 24/7 WITH CREDIT CARD.

Instrument Procedures

There are no published instrument procedures at S68.

Some nearby airports with instrument procedures:

KLWS - Lewiston/Nez Perce County Airport (31 nm W)
KGIC - Idaho County Airport (34 nm S)
KPUW - Pullman/Moscow Regional Airport (38 nm NW)
KCOE - Coeur d'Alene Airport - Pappy Boyington Field (80 nm N)
KSFF - Felts Field Airport (83 nm NW)
 
Loc | Ops | Rwys | IFR | FBO | Links
Com | Nav | Svcs | Stats | Notes
Area around S68 (Orofino Municipal Airport)
 
Road maps at: MapQuest Bing Google
 
Aerial photo
WARNING: Photo may not be current or correct
Aerial photo of S68 (Orofino Municipal Airport)
Photo by Lyle Hendricks
Photo taken 09-May-2010
looking northeast.

Do you have a better or more recent aerial photo of Orofino Municipal Airport that you would like to share? If so, please send us your photo.

 
Sectional chart

 
Airport distance calculator
Flying to Orofino Municipal Airport? Find the distance to fly.

From to S68

Sunrise and sunset
Times for 05-Dec-2021
 Local
(UTC-8)
 Zulu
(UTC)
Morning civil twilight06:3914:39
Sunrise07:1415:14
Sunset15:5823:58
Evening civil twilight16:3200:32

Current date and time
Zulu (UTC)  05-Dec-2021 15:07:19
Local (UTC-8)  05-Dec-2021 07:07:19
 
METAR
KLWS 
32nm W 
051456Z 30007KT 10SM FEW060 OVC080 03/M01 A3039 RMK AO2 SLP299 T00331011 53038
KGIC 
34nm S 
051455Z AUTO 32006KT 10SM OVC050 00/M02 A3030 RMK AO1
KP69 
35nm SE 
051452Z AUTO 00000KT 03/03 A3034 RMK AO1 SLP287 T00330033 51040 $
KPUW 
38nm NW 
051453Z AUTO 30006KT 6SM BR SCT003 M02/M03 A3035 RMK AO2 SLP302 T10221028 51038
TAF
KLWS 
32nm W 
051125Z 0512/0612 32010G15KT P6SM SCT015 BKN035 OVC070 FM051600 30004KT P6SM FEW060 SCT250 FM052100 30004KT P6SM SCT180 FM060500 14003KT P6SM BKN150 FM061000 19003KT P6SM OVC060
KPUW 
38nm NW 
051125Z 0512/0612 31010G15KT 5SM BR BKN008 BKN015 BKN060 FM051500 28005KT P6SM SCT006 FM051800 26007KT P6SM SCT250 FM052300 27003KT P6SM SCT180 FM060500 09002KT P6SM BKN150 FM061000 08003KT P6SM BKN025 OVC050
NOTAMs
Click for the latest NOTAMs
NOTAMs are issued by the DoD/FAA and will open in a separate window not controlled by AirNav.

 

 
 

FBO, Fuel Providers, and Aircraft Ground Support

  
 Business Name 
 
 Contact 
 
 Services / Description 
 
Fuel Prices
 
Comments
  
City of Orofino 208-476-4725
no information available

If you are affiliated with City of Orofino and would like to show here your services, contact info, web link, logo, and more, click here
100LL
FS $5.15 
 Updated 23-Nov-2021
 
   1 read write
FS=Full service
Update Fuel Prices
 

Would you like to see your business listed on this page?

 If your business provides an interesting product or service to pilots, flight crews, aircraft, or users of the Orofino Municipal Airport, you should consider listing it here.  To start the listing process, click on the button below
 
Add a business
 

Other Pages about Orofino Municipal Airport

Update a link
 
Copyright © AirNav, LLC. All rights reserved. Privacy Policy  Contact